Volver al catálogo

COSMOS 1598

ActivoMilitarPO
NORAD 15292·PAYLOAD·🇷🇺 Russia

Lanzado Sep 13, 1984 desde Plesetsk Cosmodrome

Loading…

Próximos Pases (próximas 24 horas)

TLE

ActualizadoSource: Space-Track

Época: Sep 14, 2026, 14:16 UTC

1 15292U 84100A   26257.59465837  .00000042  00000-0  28340-4 0  9998
2 15292  82.9426 106.6183 0033259 138.5038 234.1665 13.73198566104266

Sigue COSMOS 1598 en tiempo real con AllMySat

Download on the App Store